Payson, AZ

6:51 AM MST on August 18, 2017 (GMT -0700)
Payson

Weather History for KPAN - October, 2013

Change the Weather History Date:

Monday, October 28, 2013

  Actual Average Record
Temperature  
Mean Temperature 58 °F -  
Max Temperature 64 °F 67 °F 78 °F (2016)
Min Temperature 51 °F 35 °F 42 °F (2011)
Degree Days  
Heating Degree Days 8    
Growing Degree Days 8 (Base 50)    
Moisture  
Dew Point 30 °F    
Average Humidity 35    
Maximum Humidity 54    
Minimum Humidity 26    
Precipitation  
Precipitation 0.00 in - - ()
Sea Level Pressure  
Sea Level Pressure 29.94 in    
Wind  
Wind Speed 8 mph (South)    
Max Wind Speed 21 mph    
Max Gust Speed 31 mph    
Visibility 10 miles    
Events      
Averages and records for this station are not official NWS values.
T = Trace of Precipitation, MM = Missing Value Source: NWS Daily Summary

Daily Weather History Graph

Daily Weather History Graph

Search for Another Location

Airport or City:

Trip Planner

Search our weather history database for the weather conditions in past years. The results will help you decide how hot, cold, wet, or windy it might be!

Date:

Astronomy

Oct. 28, 2013 Rise Set
Actual Time 6:41 AM MST 5:35 PM MST
Civil Twilight 6:16 AM MST 6:01 PM MST
Nautical Twilight 5:46 AM MST 6:31 PM MST
Astronomical Twilight 5:17 AM MST 7:00 PM MST
Moon 12:53 AM MST (10/28) 2:05 PM MST (10/28)
Length of Visible Light 11h 45m
Length of Day
10h 53m
Waning Crescent, 33% of the Moon is Illuminated
Oct 28
Waning Crescent
Nov 3
New
Nov 9
First Quarter
Nov 17
Full
Nov 25
Last Quarter

Hourly Weather History & Observations

Time (MST) Temp. Dew Point Humidity Pressure Visibility Wind Dir Wind Speed Gust Speed Precip Events Conditions
12:15 AM 57.2 °F 24.8 °F 29% 29.93 in 10.0 mi SSW 6.9 mph - N/A   Clear
12:35 AM 57.2 °F 24.8 °F 29% 29.93 in 10.0 mi Calm Calm - N/A   Clear
12:55 AM 57.2 °F 24.8 °F 29% 29.93 in 10.0 mi SSW 6.9 mph 15.0 mph N/A   Clear
1:15 AM 57.2 °F 24.8 °F 29% 29.93 in 10.0 mi SSW 5.8 mph - N/A   Clear
1:35 AM 57.2 °F 24.8 °F 29% 29.93 in 10.0 mi SSW 5.8 mph - N/A   Clear
1:55 AM 57.2 °F 24.8 °F 29% 29.93 in 10.0 mi South 6.9 mph - N/A   Clear
2:15 AM 57.2 °F 24.8 °F 29% 29.93 in 10.0 mi South 8.1 mph - N/A   Clear
2:35 AM 57.2 °F 24.8 °F 29% 29.92 in 10.0 mi South 8.1 mph 13.8 mph N/A   Clear
2:55 AM 57.2 °F 24.8 °F 29% 29.92 in 10.0 mi Variable 6.9 mph 15.0 mph N/A   Clear
3:15 AM 57.2 °F 24.8 °F 29% 29.92 in 10.0 mi South 9.2 mph 15.0 mph N/A   Clear
3:35 AM 55.4 °F 24.8 °F 31% 29.92 in 10.0 mi Variable 5.8 mph 11.5 mph N/A   Clear
3:55 AM 55.4 °F 24.8 °F 31% 29.92 in 10.0 mi Variable 6.9 mph - N/A   Clear
4:15 AM 55.4 °F 24.8 °F 31% 29.92 in 10.0 mi Variable 5.8 mph - N/A   Clear
4:35 AM 55.4 °F 24.8 °F 31% 29.92 in 10.0 mi Variable 5.8 mph - N/A   Clear
4:55 AM 55.4 °F 24.8 °F 31% 29.93 in 10.0 mi Variable 5.8 mph 11.5 mph N/A   Clear
5:15 AM 53.6 °F 26.6 °F 35% 29.93 in 10.0 mi Variable 4.6 mph - N/A   Clear
5:35 AM 53.6 °F 26.6 °F 35% 29.93 in 10.0 mi Variable 4.6 mph - N/A   Clear
5:55 AM 53.6 °F 26.6 °F 35% 29.94 in 10.0 mi Variable 5.8 mph - N/A   Clear
6:15 AM 53.6 °F 26.6 °F 35% 29.94 in 10.0 mi Variable 5.8 mph 11.5 mph N/A   Clear
6:35 AM 53.6 °F 26.6 °F 35% 29.93 in 10.0 mi SE 5.8 mph - N/A   Clear
6:55 AM 51.8 °F 26.6 °F 38% 29.93 in 10.0 mi ESE 4.6 mph - N/A   Clear
7:15 AM 51.8 °F 26.6 °F 38% 29.94 in 10.0 mi SSE 4.6 mph - N/A   Clear
7:35 AM 53.6 °F 26.6 °F 35% 29.95 in 10.0 mi Variable 4.6 mph - N/A   Clear
7:55 AM 55.4 °F 28.4 °F 36% 29.95 in 10.0 mi Variable 4.6 mph - N/A   Clear
8:15 AM 57.2 °F 28.4 °F 33% 29.95 in 10.0 mi Variable 5.8 mph - N/A   Clear
8:35 AM 57.2 °F 28.4 °F 33% 29.96 in 10.0 mi South 10.4 mph 16.1 mph N/A   Clear
8:55 AM 57.2 °F 28.4 °F 33% 29.97 in 10.0 mi SSE 9.2 mph 17.3 mph N/A   Clear
9:15 AM 59.0 °F 30.2 °F 34% 29.97 in 10.0 mi South 10.4 mph 21.9 mph N/A   Clear
9:35 AM 59.0 °F 30.2 °F 34% 29.97 in 10.0 mi South 12.7 mph 25.3 mph N/A   Clear
9:55 AM 60.8 °F 30.2 °F 31% 29.97 in 10.0 mi South 12.7 mph 20.7 mph N/A   Clear
10:15 AM 60.8 °F 28.4 °F 29% 29.97 in 10.0 mi South 13.8 mph 21.9 mph N/A   Clear
10:35 AM 60.8 °F 30.2 °F 31% 29.97 in 10.0 mi South 12.7 mph 24.2 mph N/A   Clear
10:55 AM 62.6 °F 30.2 °F 30% 29.97 in 10.0 mi South 12.7 mph 24.2 mph N/A   Clear
11:15 AM 62.6 °F 32.0 °F 32% 29.96 in 10.0 mi SSW 12.7 mph 21.9 mph N/A   Clear
11:35 AM 62.6 °F 32.0 °F 32% 29.96 in 10.0 mi South 12.7 mph 27.6 mph N/A   Clear
11:55 AM 62.6 °F 32.0 °F 32% 29.96 in 10.0 mi South 17.3 mph 29.9 mph N/A   Clear
12:15 PM 62.6 °F 32.0 °F 32% 29.95 in 10.0 mi SSW 18.4 mph 27.6 mph N/A   Clear
12:35 PM 62.6 °F 32.0 °F 32% 29.94 in 10.0 mi South 15.0 mph 23.0 mph N/A   Clear
12:55 PM 62.6 °F 32.0 °F 32% 29.93 in 10.0 mi South 15.0 mph 27.6 mph N/A   Clear
1:15 PM 62.6 °F 30.2 °F 30% 29.93 in 10.0 mi SSW 13.8 mph 26.5 mph N/A   Scattered Clouds
1:35 PM 60.8 °F 30.2 °F 31% 29.93 in 10.0 mi SSW 10.4 mph 28.8 mph N/A   Scattered Clouds
1:55 PM 60.8 °F 30.2 °F 31% 29.93 in 10.0 mi South 15.0 mph 25.3 mph N/A   Mostly Cloudy
2:15 PM 60.8 °F 30.2 °F 31% 29.93 in 10.0 mi SSW 18.4 mph 29.9 mph N/A   Mostly Cloudy
2:35 PM 62.6 °F 30.2 °F 30% 29.93 in 10.0 mi SW 16.1 mph 24.2 mph N/A   Scattered Clouds
2:55 PM 64.4 °F 30.2 °F 28% 29.93 in 10.0 mi SSW 13.8 mph 29.9 mph N/A   Scattered Clouds
3:15 PM 64.4 °F 30.2 °F 28% 29.93 in 10.0 mi SW 20.7 mph 29.9 mph N/A   Mostly Cloudy
3:35 PM 64.4 °F 28.4 °F 26% 29.93 in 10.0 mi SSW 17.3 mph 31.1 mph N/A   Mostly Cloudy
3:55 PM 62.6 °F 30.2 °F 30% 29.93 in 10.0 mi SSW 11.5 mph 26.5 mph N/A   Mostly Cloudy
4:15 PM 62.6 °F 28.4 °F 27% 29.93 in 10.0 mi SSW 17.3 mph 29.9 mph N/A   Mostly Cloudy
4:35 PM 62.6 °F 28.4 °F 27% 29.93 in 10.0 mi SSW 15.0 mph 24.2 mph N/A   Mostly Cloudy
4:55 PM 62.6 °F 28.4 °F 27% 29.93 in 10.0 mi SSW 13.8 mph 23.0 mph N/A   Mostly Cloudy
5:15 PM 60.8 °F 30.2 °F 31% 29.93 in 10.0 mi SSW 17.3 mph - N/A   Scattered Clouds
5:35 PM 60.8 °F 30.2 °F 31% 29.93 in 10.0 mi SSW 11.5 mph 20.7 mph N/A   Mostly Cloudy
5:55 PM 59.0 °F 30.2 °F 34% 29.93 in 10.0 mi South 9.2 mph 19.6 mph N/A   Mostly Cloudy
6:15 PM 59.0 °F 32.0 °F 36% 29.93 in 10.0 mi SSW 11.5 mph 19.6 mph N/A   Scattered Clouds
6:35 PM 57.2 °F 32.0 °F 38% 29.93 in 10.0 mi Variable 4.6 mph 11.5 mph N/A   Partly Cloudy
6:55 PM 57.2 °F 32.0 °F 38% 29.93 in 10.0 mi SSW 8.1 mph - N/A   Clear
7:15 PM 57.2 °F 32.0 °F 38% 29.93 in 10.0 mi South 9.2 mph - N/A   Clear
7:35 PM 57.2 °F 32.0 °F 38% 29.93 in 10.0 mi South 9.2 mph 15.0 mph N/A   Partly Cloudy
7:55 PM 57.2 °F 32.0 °F 38% 29.93 in 10.0 mi Variable 5.8 mph 13.8 mph N/A   Scattered Clouds
8:15 PM 57.2 °F 33.8 °F 41% 29.93 in 10.0 mi SSE 9.2 mph 15.0 mph N/A   Mostly Cloudy
8:35 PM 57.2 °F 33.8 °F 41% 29.94 in 10.0 mi SSE 8.1 mph 17.3 mph N/A   Mostly Cloudy
8:55 PM 57.2 °F 33.8 °F 41% 29.95 in 10.0 mi Variable 5.8 mph 15.0 mph N/A   Overcast
9:15 PM 57.2 °F 35.6 °F 44% 29.95 in 10.0 mi SSE 9.2 mph - N/A   Overcast
9:35 PM 57.2 °F 37.4 °F 48% 29.95 in 10.0 mi SSE 9.2 mph 15.0 mph N/A   Overcast
9:55 PM 57.2 °F 37.4 °F 48% 29.96 in 10.0 mi SSE 9.2 mph 18.4 mph N/A   Overcast
10:15 PM 55.4 °F 37.4 °F 51% 29.96 in 10.0 mi SSE 10.4 mph 18.4 mph N/A   Scattered Clouds
10:35 PM 55.4 °F 37.4 °F 51% 29.96 in 10.0 mi SSE 10.4 mph 23.0 mph N/A   Mostly Cloudy
10:55 PM 55.4 °F 37.4 °F 51% 29.96 in 10.0 mi SSE 8.1 mph 20.7 mph N/A   Overcast
11:15 PM 55.4 °F 37.4 °F 51% 29.96 in 10.0 mi SSE 9.2 mph 19.6 mph N/A   Scattered Clouds
11:35 PM 53.6 °F 37.4 °F 54% 29.96 in 10.0 mi SSE 8.1 mph 20.7 mph N/A   Clear
11:55 PM 53.6 °F 37.4 °F 54% 29.96 in 10.0 mi SSE 10.4 mph 19.6 mph N/A   Clear